Retour au catalogue

USA 407

ActifMilitaireVLEO
NORAD 61028·PAYLOAD·🇺🇸 United States

Lancé Sep 6, 2024 depuis Vandenberg Space Force Base

Loading…

Prochains Passages (prochaines 24 heures)

TLE

PériméSource: Mike McCants

Époque: Sep 9, 2026, 20:21 UTC

1 61028U 24160H   26252.84793840 0.00000000  00000-0  00000-0 0    03
2 61028  70.0177 159.5787 0004000 347.2658  12.7342 14.96713290    03

Suivez USA 407 en temps réel avec AllMySat

Download on the App Store